OneWeb SL0704

operational
NORAD ID: 61609 Int'l Des: 2024-188 Owner: ONEWEBE Country: UK Constellation: oneweb
LEOCIRCULARPOLARONEWEB_TYPE

关于 OneWeb SL0704

正在加载描述...

实时位置

正在加载3D地球...

即将过境

高度历史

Altitude vs Time

uPlot chart will show altitude changes over time

两行轨道根数

1 61609U 24188R 26033.45117949 -.00001208 00000-0 -34976-2 0 9993
2 61609 87.8776 63.0845 0002387 119.0357 241.1010 13.10381154 65646
Epoch: Feb 2, 2026 • Age: 20 hours

当前状态

高度 1224.6 km
速度 7.24 km/s
星下点 23.53°N, 176.23°W
发射日期 Oct 20, 2024
运行时间 1.2 years
类型 internet

技术详情

分类 Payload
质量 148.00 kg
干质量 140.00 kg
总质量 148.00 kg
长度 1.30 m
直径 1.00 m
跨度 5.00 m
形状 Trapezoid+2 pan
制造商 ONEWUS
平台类型 ARROW
阶段状态 In Orbit
所有者/国家 ONEWEBE/UK

大型星座

Loading constellations...